Simultaneous Nadir Overpasses (SNOs) Predictions

Prediction of SNOs between AQUA and METOP-B Satellite Orbit:

Table of predicted SNOs for the next 14.0 days since TLE Epoch: 1/8/2022
Index Date (AQUA) Time (AQUA) Lat,Lon (AQUA) SZA (AQUA ) Date (METOP-B) Time (METOP-B) Lat,Lon (METOP-B) SZA (METOP-B ) Distance(km) Time Diff (sec)
1 01/08/2022 14:35:51 -73.40, 136.24 84.41 01/08/2022 14:34:42 -73.34, 134.52 84.40 55.03 69
2 01/08/2022 15:25:27 73.85, -57.10 96.07 01/08/2022 15:25:12 73.84, -56.99 96.05 3.85 15
3 01/08/2022 16:14:54 -73.92, 110.40 83.87 01/08/2022 16:15:52 -73.91, 110.51 83.89 3.55 58
4 01/11/2022 10:10:11 -73.64,-157.82 84.57 01/11/2022 10:08:59 -73.53,-158.63 84.63 27.92 72
5 01/11/2022 10:59:42 73.83, 9.39 95.64 01/11/2022 10:59:33 73.83, 9.39 95.64 0.77 9
6 01/11/2022 11:49:09 -73.89, 176.90 84.30 01/11/2022 11:50:13 -73.91, 176.91 84.30 1.66 64
7 01/14/2022 05:44:28 -73.78, -91.68 84.88 01/14/2022 05:43:14 -73.77, -91.66 84.87 1.03 74
8 01/14/2022 06:33:56 73.82, 75.86 95.17 01/14/2022 06:33:53 73.81, 75.77 95.17 2.72 3
9 01/14/2022 07:23:23 -73.88,-116.63 84.78 01/14/2022 07:24:33 -73.90,-116.70 84.77 3.22 70
10 01/17/2022 01:18:43 -73.77, -25.23 85.40 01/17/2022 01:17:35 -73.76, -25.27 85.40 1.70 68
11 01/17/2022 02:08:11 73.82, 142.30 94.65 01/17/2022 02:08:13 73.85, 142.27 94.68 3.10 2
12 01/17/2022 02:57:40 -73.98, -50.40 85.19 01/17/2022 02:58:52 -73.99, -50.07 85.20 10.30 72
13 01/19/2022 20:52:58 -73.78, 41.20 85.96 01/19/2022 20:51:55 -73.80, 41.23 85.93 2.45 63
14 01/19/2022 21:42:26 73.83,-151.27 94.09 01/19/2022 21:42:34 73.83,-151.36 94.09 2.88 8



Historial Predications of SNOs between AQUA and METOP-B
